User: anonymous   Login
Location: Street
(51.1247°N, 2.7429°W)
Time: 16:47:14
(UTC+01:00)
Language:

A-11 Canister half - Orbit

View from above orbital plane
View from above orbital plane
View from above satellite
View from above satellite

Ground track
Ground track

The orbit data is extracted from the following two-line orbital elements,

1    53U 60009E   21132.30550622 -.00000122  00000-0 -36818-3 0  9991
2    53  47.2776 324.8575 0097956 333.7134  25.8705 12.17254703708629
Epoch (UTC): 12 May 2021 07:19:55
Eccentricity: 0.0097956
inclination: 47.2776°
perigee height: 1526 km
apogee height: 1683 km
right ascension of ascending node: 324.8575°
argument of perigee: 333.7134°
revolutions per day: 12.17254703
mean anomaly at epoch: 25.8705°
orbit number at epoch: 70862

The dashed part of the orbit path shows where the satellite is in the earth's shadow,  

DLR